Grand Marais, MN

11:05 AM CST on December 03, 2016 (GMT -0600)
Grand Marais

Weather History for KGNA - November, 2013

Change the Weather History Date:

Monday, November 11, 2013

  Actual Average (KCKC) Record (KCKC)
Temperature  
Mean Temperature 22 °F -  
Max Temperature 25 °F 33 °F 50 °F (2003)
Min Temperature 18 °F 22 °F 6 °F (2008)
Degree Days  
Heating Degree Days 44    
Moisture  
Dew Point 9 °F    
Average Humidity 58    
Maximum Humidity 65    
Minimum Humidity 53    
Precipitation  
Precipitation 0.00 in - - ()
Sea Level Pressure  
Sea Level Pressure 30.38 in    
Wind  
Wind Speed 12 mph (NW)    
Max Wind Speed 23 mph    
Max Gust Speed 47 mph    
Averages and records for this station are not official NWS values.
T = Trace of Precipitation, MM = Missing Value Source: NWS Daily Summary

Daily Weather History Graph

Daily Weather History Graph

Search for Another Location

Airport or City:

Trip Planner

Search our weather history database for the weather conditions in past years. The results will help you decide how hot, cold, wet, or windy it might be!

Date:

Astronomy

Nov. 11, 2013 Rise Set
Actual Time 7:01 AM CST 4:28 PM CST
Civil Twilight 6:28 AM CST 5:02 PM CST
Nautical Twilight 5:50 AM CST 5:39 PM CST
Astronomical Twilight 5:14 AM CST 6:15 PM CST
Moon 1:33 PM CST (11/11) 12:20 AM CST (11/11)
Length of Visible Light 10h 34m
Length of Day
9h 27m
Waxing Gibbous, 66% of the Moon is Illuminated
Nov 11
Waxing Gibbous
Nov 17
Full
Nov 25
Last Quarter
Dec 2
New
Dec 9
First Quarter

Hourly Weather History & Observations

Time (CST) Temp. Windchill Dew Point Humidity Pressure Visibility Wind Dir Wind Speed Gust Speed Precip Events Conditions
12:56 AM 23.0 °F 10.1 °F 10.0 °F 58% 30.16 in - NNW 15.0 mph 29.9 mph N/A   Unknown
1:56 AM 23.0 °F 14.7 °F 12.0 °F 63% 30.18 in - NW 6.9 mph 18.4 mph N/A   Unknown
2:56 AM 21.0 °F 10.6 °F 9.0 °F 60% 30.21 in - NNW 9.2 mph 21.9 mph N/A   Unknown
3:56 AM 19.9 °F 13.4 °F 10.0 °F 65% 30.23 in - Variable 4.6 mph - N/A   Unknown
4:56 AM 19.9 °F 13.4 °F 9.0 °F 62% 30.26 in - Variable 4.6 mph - N/A   Unknown
5:56 AM 19.9 °F 10.1 °F 9.0 °F 62% 30.27 in - WNW 8.1 mph - N/A   Unknown
6:56 AM 19.0 °F 13.9 °F 8.1 °F 62% 30.30 in - Variable 3.5 mph 17.3 mph N/A   Unknown
7:56 AM 21.0 °F 10.6 °F 8.1 °F 57% 30.32 in - WNW 9.2 mph 19.6 mph N/A   Unknown
8:56 AM 21.9 °F 10.4 °F 8.1 °F 55% 30.33 in - WNW 11.5 mph 27.6 mph N/A   Unknown
9:56 AM 23.0 °F 7.2 °F 8.1 °F 53% 30.31 in - NNW 23.0 mph 38.0 mph N/A   Unknown
10:56 AM 24.1 °F 9.8 °F 9.0 °F 53% 30.32 in - NW 19.6 mph 46.0 mph N/A   Unknown
11:56 AM 25.0 °F 10.6 °F 10.0 °F 53% 30.32 in - NNW 20.7 mph 42.6 mph N/A   Unknown
12:56 PM 25.0 °F 9.9 °F 10.0 °F 53% 30.31 in - NNW 23.0 mph 47.2 mph N/A   Unknown
1:56 PM 25.0 °F 11.3 °F 10.0 °F 53% 30.34 in - NNW 18.4 mph 43.7 mph N/A   Unknown
2:56 PM 24.1 °F 12.5 °F 10.0 °F 55% 30.44 in - NNW 12.7 mph 23.0 mph N/A   Unknown
3:56 PM 21.9 °F 8.7 °F 9.0 °F 58% 30.45 in - NNW 15.0 mph 36.8 mph N/A   Unknown
4:56 PM 21.0 °F 11.4 °F 8.1 °F 57% 30.50 in - NNW 8.1 mph 26.5 mph N/A   Unknown
5:56 PM 21.0 °F 12.4 °F 10.0 °F 63% 30.55 in - SW 6.9 mph - N/A   Unknown
6:56 PM 19.9 °F 4.8 °F 8.1 °F 60% 30.51 in - NNW 18.4 mph 34.5 mph N/A   Unknown
7:56 PM 19.9 °F 3.9 °F 7.0 °F 57% 30.52 in - NNW 20.7 mph 35.7 mph N/A   Unknown
8:56 PM 19.9 °F 4.3 °F 7.0 °F 57% 30.55 in - NNW 19.6 mph 40.3 mph N/A   Unknown
9:56 PM 19.0 °F 2.4 °F 5.0 °F 54% 30.55 in - NNW 21.9 mph 41.4 mph N/A   Unknown
10:56 PM 18.0 °F 1.7 °F 6.1 °F 60% 30.55 in - NNW 19.6 mph 38.0 mph N/A   Unknown
11:56 PM 18.0 °F - 6.1 °F 60% 30.65 in - Calm Calm - N/A   Unknown